Weather History for China Lake, CA

Change the Weather History Date:

Friday, March 23, 2012

  Actual Average Record
Temperature  
Mean Temperature 65 °F -  
Max Temperature 75 °F 73 °F 84 °F (1998)
Min Temperature 55 °F 45 °F 36 °F (2006)
Growing Degree Days 15 (Base 50)    
Moisture  
Dew Point 29 °F    
Average Humidity 32    
Maximum Humidity 57    
Minimum Humidity 9    
Precipitation  
Precipitation 0.00 in - - ()
Sea Level Pressure  
Sea Level Pressure 29.87 in    
Wind  
Wind Speed 13 mph (South)    
Max Wind Speed 20 mph    
Max Gust Speed 25 mph    
Visibility 10 miles    
Events      
Averages and records for this station are not official NWS values.
T = Trace of Precipitation, MM = Missing Value Source: NWS Daily Summary

Daily Weather History Graph

Daily Weather History Graph

Search for Another Location

Airport:

Trip Planner

Search our weather history database for the weather conditions in past years. The results will help you decide how hot, cold, wet, or windy it might be!

Date:

Astronomy

Mar. 23, 2012 Rise Set
Actual Time 6:49 AM PDT 7:05 PM PDT
Civil Twilight 6:23 AM PDT 7:31 PM PDT
Nautical Twilight 5:53 AM PDT 8:00 PM PDT
Astronomical Twilight 5:23 AM PDT 8:31 PM PDT
Moon 7:03 AM PDT (3/23) 8:27 PM PDT (3/23)
Length of Visible Light 13h 07m
Length of Day
12h 16m
New Moon, 1% of the Moon is Illuminated
Mar 23
New Moon
Mar 30
First Quarter
Apr 6
Full
Apr 13
Last Quarter
Apr 21
New

Hourly Weather History & Observations

Time (PDT) Temp. Dew Point Humidity Pressure Visibility Wind Dir Wind Speed Gust Speed Precip Events Conditions
12:56 AM 57.9 °F 39.0 °F 49% 29.80 in 10.0 mi South 13.8 mph - N/A   Clear
1:56 AM 59.0 °F 39.9 °F 49% 29.81 in 10.0 mi SSW 16.1 mph - N/A   Clear
2:56 AM 59.0 °F 41.0 °F 51% 29.83 in 10.0 mi SSW 12.7 mph - N/A   Clear
3:56 AM 57.0 °F 42.1 °F 57% 29.83 in 10.0 mi South 10.4 mph - N/A   Clear
4:56 AM 57.9 °F 39.9 °F 51% 29.83 in 10.0 mi South 17.3 mph - N/A   Clear
5:56 AM 55.9 °F 39.9 °F 55% 29.85 in 10.0 mi SSW 3.5 mph - N/A   Clear
6:56 AM 57.0 °F 37.9 °F 49% 29.87 in 10.0 mi South 11.5 mph - N/A   Clear
7:56 AM 55.9 °F 37.0 °F 49% 29.89 in 10.0 mi South 9.2 mph - N/A   Clear
8:56 AM 59.0 °F 37.9 °F 46% 29.90 in 10.0 mi South 12.7 mph - N/A   Clear
9:56 AM 63.0 °F 37.0 °F 38% 29.91 in 10.0 mi South 11.5 mph - N/A   Clear
10:56 AM 66.0 °F 34.0 °F 30% 29.91 in 10.0 mi SSE 15.0 mph 25.3 mph N/A   Clear
11:56 AM 69.1 °F 30.0 °F 23% 29.91 in 10.0 mi South 18.4 mph 25.3 mph N/A   Clear
12:56 PM 72.0 °F 25.0 °F 17% 29.90 in 10.0 mi South 16.1 mph - N/A   Clear
1:56 PM 73.0 °F 18.0 °F 12% 29.88 in 10.0 mi South 15.0 mph 23.0 mph N/A   Clear
2:56 PM 73.9 °F 14.0 °F 10% 29.86 in 10.0 mi South 15.0 mph 24.2 mph N/A   Clear
3:56 PM 75.9 °F 12.9 °F 9% 29.85 in 10.0 mi South 16.1 mph 23.0 mph N/A   Clear
4:56 PM 73.9 °F 12.0 °F 9% 29.85 in 10.0 mi South 19.6 mph 25.3 mph N/A   Clear
5:56 PM 72.0 °F 9.0 °F 9% 29.85 in 10.0 mi South 15.0 mph 23.0 mph N/A   Clear
6:56 PM 69.1 °F 24.1 °F 18% 29.86 in 10.0 mi South 12.7 mph - N/A   Clear
7:56 PM 64.9 °F 26.1 °F 23% 29.87 in 10.0 mi South 11.5 mph - N/A   Clear
8:56 PM 62.1 °F 27.0 °F 26% 29.89 in 10.0 mi South 11.5 mph - N/A   Clear
9:56 PM 61.0 °F 27.0 °F 27% 29.90 in 10.0 mi South 13.8 mph - N/A   Clear
10:56 PM 57.9 °F 28.0 °F 32% 29.90 in 10.0 mi SSW 11.5 mph - N/A   Clear
11:56 PM 55.9 °F 27.0 °F 33% 29.91 in 10.0 mi WNW 3.5 mph - N/A   Clear